Temp
11 11 11 11 12 12 12 12 12 12 12 12 11 11 11 11 11 11 11 12 11 12 12 12 12 12 13 12 12 12 12 11 11 11 11 11 11 10 10 9 9 9 8
11 11 11 11 11 11 12 12 12 12 11 11 11 11 11 11 11 11 11 12 12 12 12 12 12 12 12 12 12 12 12 12 11 11 11 11 10 10 10 9 9 9 9
11 11 11 11 11 11 11 11 11 11 11 11 11 11 11 11 11 11 11 12 12 12 12 11 12 12 12 12 12 12 11 11 11 11 11 10 10 10 10 9 9 9 9
11 11 11 11 11 11 11 11 11 10 11 11 11 11 11 11 11 11 12 12 11 11 11 11 11 11 11 11 11 11 11 11 10 10 10 10 10 9 9 9 9 9 8
11 11 11 11 11 10 10 10 10 10 10 10 10 11 11 11 11 11 11 11 11 11 11 11 11 11 11 11 11 11 11 10 10 10 10 10 10 9 9 8 8 8 8
10 10 11 11 11 10 10 10 10 10 10 10 10 10 10 10 11 11 11 10 10 10 10 10 10 10 10 10 10 10 10 10 9 9 9 9 9 9 9 9 8 8 8
10 10 11 11 10 10 10 10 10 10 10 10 10 10 10 10 10 10 10 10 10 10 10 10 10 9 9 9 9 9 9 9 9 9 8 8 9 8 8 8 8 8 7
10 10 10 11 10 10 10 10 10 10 10 10 10 10 9 9 9 10 10 10 9 9 9 9 8 8 8 8 8 8 8 8 8 8 8 7 8 8 7 7 7 7 7
10 10 10 10 10 10 10 9 9 10 10 9 10 9 9 9 8 8 8 8 8 8 8 8 7 7 7 7 7 7 7 7 7 7 7 7 6 6 6 6 6 6 6
10 10 10 10 10 10 9 9 9 9 10 9 9 9 8 8 8 7 7 7 7 6 6 6 6 6 6 6 6 7 6 6 6 6 6 5 5 5 5 5 5 5 5
10 10 10 10 10 10 9 9 9 9 9 9 9 9 8 8 8 7 7 6 7 6 6 6 6 6 6 6 6 6 6 5 6 6 5 5 5 5 5 5 5 5 5
10 10 10 10 10 9 9 9 9 9 9 8 9 9 8 8 8 7 7 7 7 6 6 6 6 5 5 5 5 5 6 6 6 6 6 5 6 5 5 5 5 4 5
10 10 10 10 10 9 9 9 9 9 8 8 8 8 8 8 8 7 7 6 6 6 6 5 5 5 6 6 7 7 7 6 6 6 6 6 6 5 5 5 5 5 5
10 10 9 9 9 9 9 9 9 8 8 8 8 8 8 8 8 7 7 7 7 7 7 7 7 7 7 7 6 6 6 6 6 6 6 6 6 5 5 5 5 5 5
9 9 9 9 9 9 9 9 9 8 8 8 7 8 8 8 7 7 7 7 7 7 7 7 7 7 7 6 6 6 6 6 5 5 5 5 6 6 6 5 4 4 4
9 9 9 9 9 9 9 9 8 8 8 7 7 7 7 7 7 7 6 6 6 7 7 7 7 6 6 6 5 5 5 5 5 5 5 5 5 6 5 5 4 4 3
9 9 9 9 9 9 9 8 8 8 8 7 7 7 7 7 7 6 6 6 6 6 6 6 6 5 5 5 5 5 5 5 6 6 6 6 6 6 6 5 6 3 2
9 9 9 9 9 9 8 8 8 8 8 7 7 7 7 7 6 6 6 6 6 6 6 5 5 5 5 6 6 6 6 6 6 7 6 6 6 5 5 4 3 3 3
9 9 9 9 9 9 8 8 8 8 7 7 7 7 7 6 6 6 6 5 5 5 5 5 5 5 6 6 6 7 7 6 7 6 6 5 4 4 3 3 2 2 1
8 9 8 8 8 8 8 8 8 7 7 7 7 6 6 6 6 5 5 4 5 5 5 5 5 5 6 6 6 6 6 6 6 5 5 4 4 3 2 2 1 0 0
8 8 8 7 8 8 8 7 7 7 7 6 6 6 5 5 4 4 4 4 4 5 5 5 6 6 6 6 6 6 6 5 5 5 4 3 2 2 2 1 1 1 -0
7 7 7 7 7 7 7 7 7 6 6 6 5 5 4 4 4 4 4 4 5 5 5 5 5 5 5 5 6 6 6 6 5 5 4 4 3 2 2 1 -0 -1 -1
7 7 7 7 7 7 7 6 6 6 6 5 4 4 3 4 4 4 4 4 4 5 5 5 5 5 5 4 3 3 4 4 5 5 4 3 3 2 1 -0 -1 -1 -2
7 7 7 7 6 6 6 6 6 5 5 4 4 3 3 4 4 4 4 4 4 5 5 5 4 4 4 3 3 1 -0 -1 -1 2 2 1 0 -0 -1 -1 -2 -3 -3
6 6 6 6 6 6 6 5 5 4 4 4 3 3 3 3 3 4 4 4 4 4 4 4 3 3 2 2 1 1 0 -0 -1 -2 -0 -1 -2 -2 -3 -3 -4 -4 -4
6 6 6 6 5 5 5 5 4 4 4 3 3 3 3 4 4 4 4 4 4 4 3 3 2 2 1 1 -0 -1 -1 -2 -2 -3 -2 -2 -3 -3 -4 -4 -5 -5 -5
Height
3160 3159 3158 3156 3155 3153 3151 3149 3147 3144 3143 3141 3140 3139 3139 3139 3138 3139 3139 3140 3140 3141 3141 3141 3141 3141 3141 3141 3141 3142 3141 3140 3139 3140 3139 3138 3138 3137 3136 3135 3134 3134 3133
3159 3159 3158 3157 3155 3154 3151 3149 3147 3144 3143 3141 3140 3139 3138 3138 3138 3138 3139 3139 3140 3140 3140 3139 3139 3139 3139 3139 3140 3140 3139 3138 3138 3137 3137 3136 3136 3135 3134 3132 3132 3132 3132
3159 3159 3158 3157 3155 3154 3152 3149 3148 3146 3144 3142 3141 3139 3138 3138 3138 3138 3138 3139 3138 3138 3138 3138 3138 3138 3138 3139 3138 3138 3137 3137 3136 3135 3135 3134 3134 3134 3133 3132 3131 3130 3130
3158 3158 3158 3157 3155 3154 3153 3150 3149 3147 3145 3144 3142 3140 3139 3137 3137 3137 3137 3137 3138 3137 3137 3137 3137 3137 3137 3137 3136 3136 3136 3135 3134 3133 3133 3133 3131 3133 3131 3130 3129 3128 3127
3157 3157 3157 3156 3155 3154 3152 3151 3149 3147 3146 3144 3143 3141 3139 3137 3137 3136 3136 3137 3137 3137 3136 3136 3136 3136 3136 3135 3135 3134 3133 3133 3131 3130 3130 3128 3128 3128 3129 3126 3126 3125 3124
3156 3157 3156 3155 3154 3154 3152 3150 3149 3147 3146 3144 3143 3141 3140 3137 3136 3135 3136 3136 3136 3136 3136 3135 3135 3134 3133 3133 3132 3131 3131 3130 3129 3127 3126 3125 3126 3124 3125 3124 3122 3122 3121
3155 3155 3155 3154 3154 3153 3151 3150 3149 3147 3146 3143 3142 3140 3138 3137 3135 3134 3134 3134 3133 3133 3133 3132 3132 3131 3130 3129 3129 3128 3127 3126 3125 3124 3122 3122 3122 3121 3120 3119 3119 3118 3117
3153 3154 3154 3153 3152 3151 3150 3149 3148 3146 3145 3142 3140 3138 3137 3135 3134 3133 3131 3131 3131 3130 3129 3129 3128 3127 3126 3126 3125 3124 3124 3123 3122 3120 3119 3118 3117 3117 3116 3115 3114 3113 3113
3151 3152 3152 3152 3151 3150 3149 3148 3147 3145 3143 3141 3139 3137 3135 3133 3132 3131 3130 3129 3129 3128 3127 3126 3125 3124 3123 3122 3122 3121 3120 3119 3118 3117 3116 3114 3113 3112 3111 3110 3109 3108 3108
3149 3150 3150 3150 3150 3149 3148 3146 3145 3144 3142 3140 3138 3135 3133 3131 3130 3129 3128 3126 3126 3125 3124 3123 3122 3121 3120 3119 3118 3117 3116 3115 3114 3114 3113 3110 3109 3108 3107 3106 3104 3104 3103
3146 3148 3149 3148 3147 3146 3146 3145 3143 3142 3141 3139 3137 3134 3132 3131 3129 3128 3127 3126 3125 3123 3122 3121 3120 3119 3117 3116 3115 3113 3112 3112 3111 3110 3108 3107 3106 3104 3103 3101 3099 3098 3097
3143 3144 3145 3146 3146 3144 3144 3143 3141 3140 3139 3137 3135 3133 3131 3129 3128 3127 3126 3124 3122 3121 3120 3118 3117 3116 3115 3113 3112 3110 3109 3107 3106 3105 3103 3102 3100 3099 3097 3095 3094 3092 3091
3140 3140 3141 3141 3142 3141 3141 3140 3138 3137 3136 3134 3132 3130 3130 3128 3125 3124 3122 3121 3120 3118 3117 3116 3115 3114 3112 3110 3108 3106 3104 3102 3101 3099 3097 3095 3093 3092 3090 3088 3086 3086 3084
3137 3137 3137 3138 3138 3137 3137 3136 3136 3135 3133 3132 3131 3129 3126 3126 3124 3122 3121 3119 3118 3116 3114 3113 3110 3108 3106 3103 3101 3099 3098 3096 3094 3092 3090 3089 3086 3085 3083 3081 3080 3078 3076
3131 3133 3134 3134 3134 3133 3134 3133 3132 3131 3129 3128 3126 3124 3123 3122 3120 3118 3117 3116 3114 3112 3110 3109 3106 3104 3102 3100 3097 3095 3093 3091 3089 3086 3082 3080 3078 3076 3074 3072 3071 3070 3069
3126 3129 3130 3131 3130 3129 3130 3129 3128 3128 3126 3125 3123 3121 3120 3118 3116 3114 3113 3111 3109 3108 3106 3104 3102 3099 3097 3094 3092 3090 3087 3085 3083 3079 3075 3073 3071 3069 3066 3064 3064 3062 3061
3121 3123 3125 3126 3126 3126 3124 3124 3124 3123 3123 3121 3120 3118 3117 3115 3113 3111 3110 3107 3105 3103 3101 3098 3096 3093 3091 3088 3086 3083 3080 3077 3074 3070 3068 3065 3063 3061 3057 3055 3053 3054 3053
3115 3117 3118 3120 3121 3121 3120 3120 3120 3119 3118 3118 3116 3114 3112 3111 3109 3108 3105 3103 3101 3098 3096 3093 3090 3088 3084 3081 3079 3076 3073 3070 3066 3063 3061 3058 3055 3051 3049 3046 3043 3041 3040
3109 3111 3112 3113 3114 3115 3115 3116 3116 3115 3114 3114 3112 3110 3109 3107 3105 3104 3101 3099 3096 3093 3090 3087 3085 3081 3077 3074 3072 3070 3068 3064 3059 3057 3053 3050 3046 3043 3040 3037 3035 3033 3031
3102 3104 3106 3107 3109 3111 3112 3112 3111 3111 3111 3109 3109 3107 3105 3103 3101 3099 3097 3095 3092 3089 3085 3082 3079 3075 3070 3067 3065 3063 3060 3056 3052 3048 3045 3042 3038 3035 3031 3028 3025 3023 3021
3097 3099 3102 3104 3106 3108 3107 3107 3107 3107 3106 3106 3105 3103 3101 3099 3097 3095 3093 3090 3087 3084 3080 3076 3073 3070 3065 3061 3058 3056 3053 3049 3045 3042 3039 3035 3032 3028 3025 3022 3018 3014 3010
3093 3096 3099 3101 3103 3103 3104 3104 3104 3104 3103 3102 3101 3099 3097 3095 3093 3091 3088 3084 3081 3078 3074 3070 3066 3064 3059 3052 3047 3043 3040 3042 3036 3032 3030 3025 3021 3017 3014 3010 3007 3003 2999
3091 3093 3096 3098 3099 3100 3102 3101 3101 3101 3100 3099 3098 3096 3094 3091 3089 3085 3082 3078 3075 3072 3068 3064 3060 3056 3053 3048 3040 3033 3026 3022 3018 3020 3018 3014 3009 3005 3002 2998 2994 2990 2985
3088 3090 3092 3095 3096 3097 3098 3098 3098 3098 3097 3096 3094 3092 3090 3086 3083 3080 3077 3073 3070 3067 3063 3058 3054 3048 3044 3040 3037 3030 3023 3014 3006 2994 3000 3002 2999 2994 2990 2986 2981 2976 2970
3086 3088 3090 3092 3093 3094 3095 3095 3095 3094 3093 3092 3090 3088 3085 3081 3078 3075 3072 3068 3065 3061 3056 3052 3047 3041 3035 3031 3025 3021 3018 3013 3006 2995 2980 2980 2981 2979 2976 2971 2967 2961 2956
3083 3085 3088 3090 3091 3092 3092 3092 3091 3091 3089 3087 3084 3082 3079 3076 3072 3068 3065 3062 3058 3053 3049 3044 3039 3034 3029 3024 3019 3013 3006 3000 2994 2988 2978 2971 2963 2960 2957 2953 2950 2945 2938
Wind_Speed
10 12 14 15 15 15 14 14 13 12 11 9 6 6 6 6 8 8 8 9 8 7 7 7 7 8 9 9 11 11 11 14 16 17 17 17 18 16 15 15 17 15 16
9 11 13 14 15 15 15 14 14 13 12 10 7 6 6 6 7 7 8 8 8 7 7 7 8 9 10 11 12 13 13 14 16 18 18 18 18 18 17 18 17 17 17
7 9 12 14 15 16 17 17 17 16 14 12 9 7 5 6 7 6 8 8 8 8 8 8 9 10 10 12 13 14 15 16 17 19 19 19 18 20 18 19 18 19 20
5 8 10 12 14 16 17 17 17 18 17 15 12 10 8 7 7 8 8 8 9 9 10 10 10 12 12 13 15 16 17 17 19 18 20 19 19 20 21 18 19 19 21
4 6 8 11 13 15 17 18 18 18 17 17 16 13 11 9 9 10 10 10 10 10 12 13 13 14 15 15 16 17 19 19 20 19 20 18 19 20 19 19 20 20 21
5 4 7 10 12 14 16 19 20 19 18 17 17 16 14 13 12 12 12 12 13 13 14 14 14 16 16 17 18 19 20 21 20 20 21 19 19 22 22 19 21 21 22
7 8 8 10 12 13 14 17 20 20 20 19 17 16 16 14 13 12 11 11 14 14 15 16 16 16 16 17 17 17 17 17 17 18 18 20 19 20 22 21 21 22 23
7 8 9 11 12 12 13 16 19 20 20 19 17 16 15 14 13 13 12 12 12 13 14 14 14 14 15 14 15 15 16 16 16 17 17 18 19 18 20 21 21 22 23
9 9 9 11 12 12 13 16 19 20 20 20 20 17 15 14 13 11 11 10 10 10 11 12 13 14 14 14 15 15 15 15 15 15 16 17 17 18 18 19 19 21 22
10 9 9 11 12 12 13 15 19 19 19 21 20 17 14 13 12 11 11 10 10 10 10 10 10 11 12 13 14 14 15 15 16 16 16 16 17 18 19 19 19 20 22
13 12 9 10 11 11 13 16 17 18 18 18 16 15 14 12 11 12 10 10 10 10 9 10 12 13 14 16 17 19 19 20 20 20 19 19 20 21 21 22 23 23 24
14 13 10 8 9 11 13 16 17 17 18 17 14 12 12 11 10 10 11 11 12 13 14 15 16 18 20 21 22 23 24 24 24 24 24 23 24 25 25 26 26 27 29
15 13 11 11 11 13 14 16 17 17 19 18 15 12 12 10 11 13 15 16 16 17 18 19 20 21 22 22 21 20 20 21 22 22 22 23 23 24 26 27 27 28 28
17 15 13 13 14 15 16 17 20 18 20 18 15 12 12 13 14 15 17 19 21 20 21 23 24 25 26 26 27 27 27 27 27 27 26 26 25 26 27 28 28 30 31
19 18 14 15 18 19 18 20 20 20 21 20 17 16 15 16 16 17 20 21 23 25 26 28 29 29 29 29 29 30 30 29 29 29 29 30 31 31 32 31 31 32 32
23 22 21 19 20 23 22 19 19 19 20 19 18 17 17 18 19 20 21 21 24 26 27 28 30 31 33 34 33 33 33 33 32 32 33 33 35 36 37 37 33 31 32
23 22 21 22 24 25 24 21 19 19 20 19 18 18 18 19 21 23 24 25 27 30 30 32 32 33 35 36 36 37 37 37 36 35 34 34 34 33 34 34 33 25 26
25 25 24 26 26 25 21 20 19 20 20 18 17 18 21 22 23 24 25 28 31 32 33 34 35 35 37 38 38 36 34 33 33 34 33 32 32 32 32 32 32 33 31
24 26 27 27 25 22 19 18 18 16 16 16 18 20 22 22 23 25 27 29 31 33 34 36 37 39 40 37 34 32 32 31 33 33 33 33 32 33 32 32 33 32 32
23 25 24 23 18 16 15 16 15 14 14 17 19 21 22 23 24 26 27 29 31 34 36 38 38 36 34 33 33 31 32 32 33 32 32 31 31 31 32 32 33 32 31
19 18 16 14 13 14 13 12 12 13 15 17 19 20 21 21 23 25 27 30 33 35 36 32 29 30 30 31 33 32 30 30 29 30 29 29 28 29 30 31 34 36 38
15 14 12 13 13 12 11 11 12 14 15 16 17 18 18 20 22 26 29 31 32 29 27 29 29 28 29 34 36 35 35 31 32 32 31 33 34 35 36 38 39 39 39
15 14 13 13 12 11 11 11 12 12 13 14 15 15 17 21 25 28 29 28 26 28 29 29 28 29 29 29 33 38 41 42 43 37 35 38 41 42 43 44 44 43 43
17 15 14 13 12 11 10 9 8 8 10 12 14 18 21 24 25 26 25 25 27 28 28 28 29 31 32 31 30 32 35 40 44 54 46 42 44 46 47 46 46 45 45
19 17 15 14 12 10 8 5 5 8 12 15 18 20 22 23 24 24 24 26 28 29 29 30 31 32 34 35 36 37 37 37 39 46 58 54 51 49 49 48 47 46 46
22 20 18 15 12 10 6 5 7 11 14 17 20 22 22 23 25 27 29 30 31 32 33 33 33 34 35 36 37 38 41 43 45 48 53 57 59 57 54 51 50 49 50
Wind_Direction
20 12 11 11 9 5 1 0 359 0 1 354 328 304 284 265 250 246 243 244 239 240 237 239 242 247 258 265 273 281 287 292 297 298 304 301 298 300 300 295 296 298 291
17 13 8 9 9 6 4 3 4 5 4 7 354 328 302 274 261 256 252 254 258 256 249 252 253 260 274 281 288 294 294 294 299 301 304 303 306 308 306 300 299 296 292
10 7 7 8 11 9 8 8 7 6 1 1 360 352 325 300 282 262 258 263 265 265 264 266 269 273 280 287 292 296 298 299 301 306 309 308 312 306 304 302 301 297 295
355 355 5 4 10 13 10 10 8 7 4 358 353 347 339 326 302 280 273 270 269 270 277 277 281 285 290 293 297 301 302 302 302 306 305 306 309 306 306 304 301 299 299
331 346 353 359 9 12 15 12 10 4 0 357 354 346 335 325 313 302 292 287 282 280 281 284 290 294 295 295 295 296 297 298 299 302 299 304 301 300 299 304 302 300 298
290 321 341 353 3 6 11 9 8 2 357 353 349 347 340 335 321 312 309 305 294 291 292 295 297 298 300 301 303 303 304 305 306 306 305 305 300 300 297 293 295 297 295
277 306 334 347 356 355 3 6 3 0 354 352 347 343 341 338 330 328 327 316 304 306 304 305 305 306 306 307 308 309 308 311 310 310 308 303 298 295 294 296 294 294 294
271 295 325 337 344 346 354 359 357 357 353 353 347 344 337 336 335 333 333 331 328 323 320 320 319 321 322 319 315 313 310 309 307 307 306 303 299 294 291 290 289 287 287
276 290 315 327 332 337 346 351 351 353 355 354 350 346 342 342 343 342 338 340 336 332 332 329 326 325 322 317 312 309 308 307 306 307 304 302 307 306 299 292 292 290 289
272 281 299 316 323 331 340 344 344 348 354 353 349 353 357 355 352 353 349 349 345 342 337 332 329 324 320 315 312 310 310 311 312 306 303 309 307 302 298 295 293 290 289
265 271 283 304 313 319 333 334 339 342 349 350 349 357 4 5 7 5 3 0 352 343 336 328 322 317 314 312 312 311 311 308 301 302 304 302 298 296 296 299 298 295 292
263 270 276 284 293 307 322 325 332 334 339 344 346 350 353 358 351 348 339 336 334 327 321 316 314 314 310 309 309 307 308 307 309 306 302 299 295 295 294 292 290 289 290
252 264 272 286 293 304 319 322 325 326 328 336 336 337 335 335 334 332 328 323 315 312 311 310 310 308 310 312 311 311 313 314 310 308 306 301 298 294 291 290 290 288 286
251 258 268 280 292 305 314 316 316 315 319 322 320 320 330 326 326 321 316 314 315 312 312 316 320 324 325 323 323 321 318 315 314 312 309 303 302 297 294 293 292 292 289
250 253 262 278 292 297 302 304 305 309 313 314 315 318 317 315 317 314 314 318 316 317 321 323 323 323 321 319 317 314 313 312 311 308 306 305 302 298 295 292 289 288 290
254 259 265 276 284 292 292 292 291 300 303 303 303 307 309 314 307 309 314 313 316 316 318 317 318 316 316 314 314 313 312 311 310 306 301 297 294 294 295 293 293 290 289
253 260 265 269 275 282 283 284 286 294 294 291 293 302 304 299 305 309 313 316 314 313 315 313 313 314 312 312 314 313 312 312 308 304 303 303 301 296 290 290 286 280 277
253 258 260 264 272 274 272 276 284 290 288 290 293 293 294 301 306 311 311 312 310 311 312 311 312 312 312 312 311 311 311 310 306 305 304 301 300 299 299 299 298 297 291
247 252 256 262 266 268 269 278 284 281 278 280 282 288 295 300 305 308 307 306 308 311 310 311 313 313 312 312 312 312 311 308 305 306 305 305 304 303 303 299 294 291 292
234 237 243 251 256 263 273 276 271 269 270 275 284 291 297 302 304 304 305 308 310 309 309 310 311 312 312 313 312 312 311 309 308 308 307 307 305 305 304 305 303 300 295
232 230 226 235 252 266 264 259 261 266 275 283 289 294 297 300 304 307 309 308 307 306 308 312 315 314 312 311 311 310 309 311 311 308 309 307 304 300 300 297 296 299 299
210 209 220 238 247 240 241 250 263 276 283 287 290 293 299 305 308 307 306 306 308 311 314 315 315 315 316 316 316 317 315 313 311 309 312 313 312 308 307 307 305 302 298
208 210 218 227 226 228 241 258 269 275 281 286 290 297 303 306 306 307 309 310 313 315 316 316 316 317 318 320 322 323 322 321 317 316 317 315 314 314 311 311 308 306 305
210 211 218 222 226 234 245 254 266 282 291 293 296 301 304 306 309 312 313 312 313 315 316 316 316 317 319 320 320 320 321 321 322 317 316 316 312 313 313 312 311 311 309
210 211 213 221 230 236 235 248 289 304 301 297 298 302 307 309 311 313 315 315 315 317 318 317 317 319 320 321 321 320 317 315 314 312 313 316 314 315 314 315 315 313 309
209 210 215 220 222 220 228 276 312 315 311 308 308 310 312 315 320 323 323 321 320 320 318 316 317 318 318 318 317 317 316 315 314 311 309 312 313 315 316 316 316 314 311